Preview of NWS' New Version of Forecast
This preview is not operational and should not be used for support decisions.

Regional Weather Roundup (RWR)

Issued by National Weather Service (NWS)

                            
000
ASUS42 KTBW 250015
RWRFL 
FLORIDA REGIONAL WEATHER ROUNDUP
NATIONAL WEATHER SERVICE TAMPA BAY RUSKIN FL
800 PM EDT MON JUN 24 2019

NOTE: "FAIR" INDICATES FEW OR NO CLOUDS BELOW 12,000 FEET WITH NO
SIGNIFICANT WEATHER AND/OR OBSTRUCTIONS TO VISIBILITY.

FLZ001>010-012>015-112-114-115-250100-
PANHANDLE FLORIDA
  
CITY           SKY/WX    TMP DP  RH WIND       PRES   REMARKS
PENSACOLA      FAIR      86  74  67 SW10      29.96S                  
PENSACOLA NAS  CLOUDY    84  76  76 SW8       29.96S                  
MILTON NAS     CLOUDY    84  73  69 SW7       29.96S                  
CRESTVIEW      FAIR      86  70  58 SW6       29.97S                  
DUKE FIELD     FAIR      85  71  62 SW12      29.96S                  
VALPARAISO     FAIR      85  75  71 SW12      29.96S                  
MARY ESTHER    CLOUDY    85  78  81 SW10      29.95S HX  96           
TRI COUNTY     FAIR      83  74  74 S6        29.96S                  
PANAMA CITY    FAIR      85  77  77 SW9       29.97R HX  95           
TYNDALL AFB    FAIR      87  78  76 SW14      29.97S HAZE    HX 100   
APALACHICOLA   MOCLDY    86  76  71 W12       29.98F HX  96           

STATION/POSITION SKY/WX   TEMP    WIND        PRES    WAVE   SWELL
                          AIR SEA DIR/SP/G            HT/PER HT/PER
                          (F)     (DEG/KT/KT) (MB)    (FT/S) (FT/S)
30.1N   87.6W                                   N/A     3/ 6
29.2N   88.2W                     210/  6/  8 1015.8F   3/ 6   3/ 6
PANAMA CITY BEAC           84 86  230/ 10/ 11 1015.5S
TOWER C          NOT AVBL

$$
FLZ011-016>038-118-127-128-134-139-239-250100-
NORTH FLORIDA
  
CITY           SKY/WX    TMP DP  RH WIND       PRES   REMARKS
MARIANNA       FAIR      83  75  77 SW8       29.95S                  
TALLAHASSEE    MOCLDY    90  76  63 W15       29.95S HX 101           
PERRY          FAIR      86  80  82 SW9       30.00R HX 101           
LIVE OAK       CLEAR     86  77  74 SW5       29.98R HX  97           
CROSS CITY     FAIR      85  77  76 W12       29.99S HX  96           
LAKE CITY      FAIR      86  70  58 SW6       29.98S                  
GAINESVILLE    FAIR      87  70  56 W12       30.01S                  
PALATKA        FAIR      86  72  62 W3        29.98R                  
MAYPORT NAS    FAIR      86  78  77 SE9       29.94F HX  98           
JACKSONVILLE   FAIR      91  69  48 SW6       29.94R HX  96           
JAX NAS        FAIR      95  66  38 SW10      29.96R HX  98           
JAX CECIL      CLEAR     91  70  49 SW6       29.96R HX  97           
FERNANDINA BEA FAIR      85  79  81 S9        29.95R HX  97           
ST AUGUSTINE   FAIR      87  77  72 SW3       29.97R HX  99           
PALM COAST     FAIR      86  78  76 E5        29.98R HX  97           

STATION/POSITION SKY/WX   TEMP    WIND        PRES    WAVE   SWELL
                          AIR SEA DIR/SP/G            HT/PER HT/PER
                          (F)     (DEG/KT/KT) (MB)    (FT/S) (FT/S)
SHELL POINT      NOT AVBL
KEATON BEACH               85     230/ 18/ 19 1015.4F
CEDAR KEY                  86     260/  8/ 11 1016.1F
FERNANDINA                 89 86  140/  6/  9 1014.6F
30.7N   81.3W                 83                N/A     1/ 9
MAYPORT                    86 83  140/  7/  9 1014.4F
31.4N   80.9W              84 84  190/ 14/ 16 1013.4F   2/ 3   2/ 9
ST AUGUSTINE               83 84  170/  9/ 11 1014.9R

$$
FLZ040-043>046-052-053-057-058-063-144-250100-
INTERIOR CENTRAL FLORIDA
  
CITY           SKY/WX    TMP DP  RH WIND       PRES   REMARKS
OCALA          FAIR      86  74  67 W6        30.01R                  
LEESBURG       FAIR      87  69  54 W8        30.02R                  
SANFORD        FAIR      91  68  46 W7        29.99R HX  95           
ORLANDO EXEC   FAIR      92  67  43 W9        30.00R HX  95           
ORLANDO INTL   FAIR      91  69  48 W7        30.00R HX  96           
KISSIMMEE      FAIR      91  72  53 W9        30.01R HX  98           
WINTER HAVEN   FAIR      90  70  51 NW7       30.02R HX  95           
LAKELAND       CLEAR     90  70  51 NW6       30.02R HX  95           
SEBRING        FAIR      91  73  53 N6        30.01R HX  99           
OKEECHOBEE     FAIR      90  73  58 CALM      30.00R HX  98           

$$
FLZ041-047-054-059-064-141-147-250100-
EAST CENTRAL FLORIDA
  
CITY           SKY/WX    TMP DP  RH WIND       PRES   REMARKS
DAYTONA BEACH  FAIR      88  79  74 E3        29.99R HX 103           
DELAND         FAIR      90  68  48 W6        29.99R                  
NEW SMYRNA BEA CLEAR     86  77  74 SE7       29.99F HX  97           
JFK SPACE CTR  FAIR      85  68  55 SE5       29.99R                  
TITUSVILLE     CLEAR     90  77  66 S6        30.00R HX 102           
CAPE CANAVERAL FAIR      83  35  18 S6        29.98S                  
PATRICK AFB    FAIR      84  83  96 SE9       29.99S HX 101           
MELBOURNE      FAIR      87  76  69 SE8       29.99S HX  97           
VERO BEACH     FAIR      86  78  77 SE10      30.01R HX  98           
FT PIERCE      FAIR      86  77  74 SE8       30.01R HX  97           
STUART         MOCLDY    86  70  58 S7        30.02S                  

STATION/POSITION SKY/WX   TEMP    WIND        PRES    WAVE   SWELL
                          AIR SEA DIR/SP/G            HT/PER HT/PER
                          (F)     (DEG/KT/KT) (MB)    (FT/S) (FT/S)
28.5N   80.2W              85 86  130/  6/  8 1015.6R   1/ 9   2/ 9
28.9N   78.5W              84 84  310/  8/ 10   N/A     2/ 5   2/ 5
TRIDENT PIER               82 76  150/  5/  7 1017.1R
28.4N   80.5W                 80                N/A     1/ 9
27.5N   80.2W                 83                N/A     1/ 9

$$
FLZ050-056-061-142-242-148-248-149-249-151-251-155-255-
160-260-250100-
WEST CENTRAL FLORIDA
  
CITY           SKY/WX    TMP DP  RH WIND       PRES   REMARKS
CRYSTAL RIVER  FAIR     N/A N/A N/A W5        30.02R                  
INVERNESS      FAIR      86  77  74 CALM      30.02R HX  97           
BROOKSVILLE    FAIR      84  73  69 W7        30.03R                  
CLEARWATER AIR FAIR      82  72  69 W5        30.03R                  
ST PETE CLEARW FAIR      85  73  67 W7        30.02                   
TAMPA INTL     FAIR      88  72  58 NW6       30.03R                  
PLANT CITY       N/A    N/A N/A N/A MISG        N/A                   
MACDILL AFB    FAIR      86  73  63 W5        30.02R                  
PETER O KNIGHT CLOUDY    88  73  62 W6        30.02R HX  96           
ST PETERSBURG  FAIR      88  73  61 W9        30.00R HX  95           
SARASOTA       FAIR      86  70  58 NW8       30.01R                  
VENICE         FAIR      88  75  66 NW8       30.03R HX  97           

STATION/POSITION SKY/WX   TEMP    WIND        PRES    WAVE   SWELL
                          AIR SEA DIR/SP/G            HT/PER HT/PER
                          (F)     (DEG/KT/KT) (MB)    (FT/S) (FT/S)
27.3N   84.2W                 88                N/A     2/ 8
CLEARWATER BEACH           85 90  290/  6/  8 1016.8S
MIDDLE TAMPA BAY           85     310/  9/ 11 1016.7R
VENICE                     85 86  300/  8/ 10 1016.7R

$$
FLZ066-069-070-075>078-162-262-165-265-250100-
SOUTHWEST FLORIDA AND KEYS
  
CITY           SKY/WX    TMP DP  RH WIND       PRES   REMARKS
PUNTA GORDA    FAIR      88  69  53 W8        30.03R                  
FT MYERS       FAIR      89  66  46 NW8       30.00S                  
SOUTHWEST INTL FAIR      88  70  55 NW6       30.01R                  
NAPLES         FAIR      88  75  65 NW8       30.00S HX  97           
IMMOKALEE      FAIR      90  75  62 W5        29.99R HX 100           
MARATHON       FAIR      89  73  59 VRB3      30.01S HX  97           
KEY WEST NAS   FAIR      88  75  65 SE6       30.02R HX  97           
KEY WEST INTL  FAIR      87  76  69 SE5       30.02R HX  97           

STATION/POSITION SKY/WX   TEMP    WIND        PRES    WAVE   SWELL
                          AIR SEA DIR/SP/G            HT/PER HT/PER
                          (F)     (DEG/KT/KT) (MB)    (FT/S) (FT/S)
NAPLES                     87 92              1016.2S
DRY TORTUGAS               86      80/  5/  6 1016.9R
SAND KEY                   86                 1016.7R
SOMBRERO KEY               86                 1015.9R
LONG KEY                   88     130/  4/ 10 1016.5F

$$
FLZ067-068-071>074-168-172>174-250100-
SOUTHEAST FLORIDA 
  
CITY           SKY/WX    TMP DP  RH WIND       PRES   REMARKS
W PALM BEACH   FAIR      88  75  65 SE9       30.01S HX  97           
BOCA RATON     CLEAR     88  75  66 SE5       30.01R HX  97           
FT LAUDER-EXEC FAIR      87  70  56 SE6       30.00S                  
FT LAUDERDALE  MOCLDY    87  74  64 S7        30.00R HX  95           
POMPANO BEACH  FAIR      87  70  56 SE5       30.01R                  
PEMBROKE PINES FAIR      88  73  61 S7        30.02R HX  95           
OPA LOCKA      FAIR      87  75  67 S7        30.02R HX  96           
MIAMI          FAIR      87  74  64 S6        30.01S HX  95           
WEST KENDALL   FAIR      83  77  82 S3        30.01S                  
HOMESTEAD      FAIR      84  77  80 S3        30.00S                  

STATION/POSITION SKY/WX   TEMP    WIND        PRES    WAVE   SWELL
                          AIR SEA DIR/SP/G            HT/PER HT/PER
                          (F)     (DEG/KT/KT) (MB)    (FT/S) (FT/S)
VIRGINIA KEY               87 91  150/  6/  8 1015.8R
LAKE WORTH                 85 85  170/  6/  8 1017.4S
FOWEY ROCKS                86 85  180/  8/  9 1016.7R
SETTLEMENT POINT           87      90/  3/  4 1016.6R

$$